Retour au catalogue

DONGPO 12

ActifScienceSSO
NORAD 68200·PAYLOAD·🇨🇳 China
Ce nom de satellite n'a pas encore été confirmé par des sources officielles.

Lancé Mar 16, 2026 depuis Jiuquan Satellite Launch Center

Loading…

Prochains Passages (prochaines 24 heures)

TLE

FraisSource: Space-Track

Époque: Sep 14, 2026, 15:09 UTC

1 68200U 26052C   26257.63175105  .00002059  00000-0  12700-3 0  9990
2 68200  97.5293 331.0241 0001237  89.0763 271.0609 15.11037588 27545

Suivez DONGPO 12 en temps réel avec AllMySat

Download on the App Store